Time,TemperatureF,DewpointF,PressureIn,WindDirection,WindDirectionDegrees,WindSpeedMPH,WindSpeedGustMPH,Humidity,HourlyPrecipIn,Conditions,Clouds,dailyrainin,SolarRadiationWatts/m^2,SoftwareType,DateUTC
2013-06-12 00:01:00,69.7,62.5,29.49,SW,215,0.0,0.0,78,0.00,,,0.00,0,WeatherCatV1.15B25,2013-06-12 04:01:00,
2013-06-12 00:06:00,69.5,62.7,29.49,SW,215,0.0,0.0,79,0.00,,,0.00,0,WeatherCatV1.15B25,2013-06-12 04:06:00,
2013-06-12 00:11:00,69.3,62.9,29.49,SW,215,0.0,0.0,80,0.00,,,0.00,0,WeatherCatV1.15B25,2013-06-12 04:11:00,
2013-06-12 00:16:00,69.1,63.0,29.49,SW,215,0.0,0.0,81,0.00,,,0.00,0,WeatherCatV1.15B25,2013-06-12 04:16:00,
2013-06-12 00:21:00,68.8,62.7,29.49,SW,215,0.0,1.0,81,0.00,,,0.00,0,WeatherCatV1.15B25,2013-06-12 04:21:00,
2013-06-12 00:26:00,68.6,62.5,29.49,SW,215,0.0,1.0,81,0.00,,,0.00,0,WeatherCatV1.15B25,2013-06-12 04:26:00,
2013-06-12 00:31:00,68.4,62.3,29.49,SW,215,0.0,0.0,81,0.00,,,0.00,0,WeatherCatV1.15B25,2013-06-12 04:31:00,
2013-06-12 00:36:00,68.2,62.5,29.49,SW,215,0.0,0.0,82,0.00,,,0.00,0,WeatherCatV1.15B25,2013-06-12 04:36:00,
2013-06-12 00:41:00,68.0,62.3,29.49,SW,215,0.0,0.0,82,0.00,,,0.00,0,WeatherCatV1.15B25,2013-06-12 04:41:00,
2013-06-12 00:46:00,67.9,62.2,29.49,SW,225,3.0,3.0,82,0.00,,,0.00,0,WeatherCatV1.15B25,2013-06-12 04:46:00,
2013-06-12 00:51:00,67.7,62.0,29.49,SSW,205,0.0,0.0,82,0.00,,,0.00,0,WeatherCatV1.15B25,2013-06-12 04:51:00,
2013-06-12 00:56:00,67.7,62.3,29.49,SW,229,0.0,0.0,83,0.00,,,0.00,0,WeatherCatV1.15B25,2013-06-12 04:56:00,
2013-06-12 01:01:00,67.7,62.3,29.49,SW,219,0.0,0.0,83,0.00,,,0.00,0,WeatherCatV1.15B25,2013-06-12 05:01:00,
2013-06-12 01:06:00,67.8,62.1,29.49,SSW,201,0.0,3.0,82,0.00,,,0.00,0,WeatherCatV1.15B25,2013-06-12 05:06:00,
2013-06-12 01:11:00,67.8,62.1,29.49,SSE,153,0.0,1.0,82,0.00,,,0.00,0,WeatherCatV1.15B25,2013-06-12 05:11:00,
2013-06-12 01:16:00,67.9,62.2,29.49,SW,236,0.0,3.0,82,0.00,,,0.00,0,WeatherCatV1.15B25,2013-06-12 05:16:00,
2013-06-12 01:21:00,67.9,61.8,29.49,SSW,195,0.0,2.0,81,0.00,,,0.00,0,WeatherCatV1.15B25,2013-06-12 05:21:00,
2013-06-12 01:26:00,68.0,62.3,29.49,SW,227,1.0,1.0,82,0.00,,,0.00,0,WeatherCatV1.15B25,2013-06-12 05:26:00,
2013-06-12 01:31:00,68.1,62.0,29.49,SSW,202,0.0,1.0,81,0.00,,,0.00,0,WeatherCatV1.15B25,2013-06-12 05:31:00,
2013-06-12 01:36:00,68.2,62.1,29.49,SSW,201,0.0,1.0,81,0.00,,,0.00,0,WeatherCatV1.15B25,2013-06-12 05:36:00,
2013-06-12 01:41:00,68.3,62.2,29.49,South,190,0.0,1.0,81,0.00,,,0.00,0,WeatherCatV1.15B25,2013-06-12 05:41:00,
2013-06-12 01:46:00,68.3,61.9,29.48,SSW,202,0.0,1.0,80,0.00,,,0.00,0,WeatherCatV1.15B25,2013-06-12 05:46:00,
2013-06-12 01:51:00,68.3,61.9,29.48,SSW,202,0.0,0.0,80,0.00,,,0.00,0,WeatherCatV1.15B25,2013-06-12 05:51:00,
2013-06-12 01:56:00,68.3,61.9,29.48,SW,219,0.0,3.0,80,0.00,,,0.00,0,WeatherCatV1.15B25,2013-06-12 05:56:00,
2013-06-12 02:01:00,68.3,61.9,29.48,South,185,2.0,5.0,80,0.00,,,0.00,0,WeatherCatV1.15B25,2013-06-12 06:01:00,
2013-06-12 02:06:00,68.3,61.9,29.48,SSW,196,0.0,4.0,80,0.00,,,0.00,0,WeatherCatV1.15B25,2013-06-12 06:06:00,
2013-06-12 02:11:00,68.2,61.8,29.48,WSW,237,0.0,3.0,80,0.00,,,0.00,0,WeatherCatV1.15B25,2013-06-12 06:11:00,
2013-06-12 02:16:00,68.2,61.8,29.48,South,185,1.0,1.0,80,0.00,,,0.00,0,WeatherCatV1.15B25,2013-06-12 06:16:00,
2013-06-12 02:21:00,68.1,61.3,29.48,WSW,239,0.0,2.0,79,0.00,,,0.00,0,WeatherCatV1.15B25,2013-06-12 06:21:00,
2013-06-12 02:26:00,68.1,61.3,29.48,SW,217,0.0,1.0,79,0.00,,,0.00,0,WeatherCatV1.15B25,2013-06-12 06:26:00,
2013-06-12 02:31:00,68.1,61.3,29.48,SSW,211,0.0,1.0,79,0.00,,,0.00,0,WeatherCatV1.15B25,2013-06-12 06:31:00,
2013-06-12 02:36:00,68.1,61.3,29.48,SSW,195,0.0,4.0,79,0.00,,,0.00,0,WeatherCatV1.15B25,2013-06-12 06:36:00,
2013-06-12 02:41:00,68.0,61.2,29.48,West,281,0.0,2.0,79,0.00,,,0.00,0,WeatherCatV1.15B25,2013-06-12 06:41:00,
2013-06-12 02:46:00,68.0,61.2,29.48,SSE,156,0.0,4.0,79,0.00,,,0.00,0,WeatherCatV1.15B25,2013-06-12 06:46:00,
2013-06-12 02:51:00,68.0,61.2,29.48,WNW,286,1.0,5.0,79,0.00,,,0.00,0,WeatherCatV1.15B25,2013-06-12 06:51:00,
2013-06-12 02:56:00,68.0,61.2,29.48,SSW,213,1.0,3.0,79,0.00,,,0.00,0,WeatherCatV1.15B25,2013-06-12 06:56:00,
2013-06-12 03:01:00,68.0,60.9,29.48,SW,225,2.0,2.0,78,0.00,,,0.00,0,WeatherCatV1.15B25,2013-06-12 07:01:00,
2013-06-12 03:06:00,68.0,61.2,29.48,SW,218,0.0,2.0,79,0.00,,,0.00,0,WeatherCatV1.15B25,2013-06-12 07:06:00,
2013-06-12 03:11:00,68.0,60.9,29.48,WSW,246,0.0,2.0,78,0.00,,,0.00,0,WeatherCatV1.15B25,2013-06-12 07:11:00,
2013-06-12 03:16:00,67.9,60.8,29.48,West,275,0.0,4.0,78,0.00,,,0.00,0,WeatherCatV1.15B25,2013-06-12 07:16:00,
2013-06-12 03:21:00,67.9,60.8,29.48,SSW,208,0.0,3.0,78,0.00,,,0.00,0,WeatherCatV1.15B25,2013-06-12 07:21:00,
2013-06-12 03:26:00,67.9,60.8,29.48,WNW,290,0.0,1.0,78,0.00,,,0.00,0,WeatherCatV1.15B25,2013-06-12 07:26:00,
2013-06-12 03:31:00,67.8,60.7,29.48,WSW,249,3.0,3.0,78,0.00,,,0.00,0,WeatherCatV1.15B25,2013-06-12 07:31:00,
2013-06-12 03:36:00,67.8,60.7,29.48,West,276,1.0,2.0,78,0.00,,,0.00,0,WeatherCatV1.15B25,2013-06-12 07:36:00,
2013-06-12 03:41:00,67.8,60.7,29.48,SSW,194,0.0,3.0,78,0.00,,,0.00,0,WeatherCatV1.15B25,2013-06-12 07:41:00,
2013-06-12 03:46:00,67.7,60.6,29.48,West,265,2.0,3.0,78,0.00,,,0.00,0,WeatherCatV1.15B25,2013-06-12 07:46:00,
2013-06-12 03:51:00,67.7,60.6,29.48,West,273,1.0,1.0,78,0.00,,,0.00,0,WeatherCatV1.15B25,2013-06-12 07:51:00,
2013-06-12 03:56:00,67.7,60.9,29.49,SSW,205,0.0,1.0,79,0.00,,,0.00,0,WeatherCatV1.15B25,2013-06-12 07:56:00,
2013-06-12 04:01:00,67.6,60.8,29.49,SSW,197,0.0,4.0,79,0.00,,,0.00,0,WeatherCatV1.15B25,2013-06-12 08:01:00,
2013-06-12 04:06:00,67.7,60.9,29.49,West,276,3.0,4.0,79,0.00,,,0.00,0,WeatherCatV1.15B25,2013-06-12 08:06:00,
2013-06-12 04:11:00,67.7,60.9,29.50,WSW,248,0.0,1.0,79,0.00,,,0.00,0,WeatherCatV1.15B25,2013-06-12 08:11:00,
2013-06-12 04:16:00,67.7,60.9,29.50,WSW,240,0.0,2.0,79,0.00,,,0.00,0,WeatherCatV1.15B25,2013-06-12 08:16:00,
2013-06-12 04:21:00,67.7,60.9,29.50,SW,230,0.0,0.0,79,0.00,,,0.00,0,WeatherCatV1.15B25,2013-06-12 08:21:00,
2013-06-12 04:26:00,67.7,60.9,29.50,West,263,2.0,4.0,79,0.00,,,0.00,0,WeatherCatV1.15B25,2013-06-12 08:26:00,
2013-06-12 04:31:00,67.7,60.9,29.50,West,273,2.0,4.0,79,0.00,,,0.00,0,WeatherCatV1.15B25,2013-06-12 08:31:00,
2013-06-12 04:36:00,67.6,60.8,29.50,SW,234,1.0,6.0,79,0.00,,,0.00,0,WeatherCatV1.15B25,2013-06-12 08:36:00,
2013-06-12 04:41:00,67.6,60.8,29.50,WSW,250,0.0,4.0,79,0.00,,,0.00,0,WeatherCatV1.15B25,2013-06-12 08:41:00,
2013-06-12 04:46:00,67.6,60.8,29.51,South,188,0.0,1.0,79,0.00,,,0.00,0,WeatherCatV1.15B25,2013-06-12 08:46:00,
2013-06-12 04:51:00,67.6,60.8,29.51,SSW,213,0.0,0.0,79,0.00,,,0.00,0,WeatherCatV1.15B25,2013-06-12 08:51:00,
2013-06-12 04:56:00,67.5,60.7,29.50,SSW,208,0.0,0.0,79,0.00,,,0.00,0,WeatherCatV1.15B25,2013-06-12 08:56:00,
2013-06-12 05:01:00,67.4,60.7,29.51,WSW,252,2.0,2.0,79,0.00,,,0.00,0,WeatherCatV1.15B25,2013-06-12 09:01:00,
2013-06-12 05:06:00,67.3,60.6,29.51,West,279,0.0,3.0,79,0.00,,,0.00,0,WeatherCatV1.15B25,2013-06-12 09:06:00,
2013-06-12 05:11:00,67.2,60.8,29.51,West,279,0.0,0.0,80,0.00,,,0.00,0,WeatherCatV1.15B25,2013-06-12 09:11:00,
2013-06-12 05:16:00,67.2,60.8,29.51,South,181,0.0,0.0,80,0.00,,,0.00,0,WeatherCatV1.15B25,2013-06-12 09:16:00,
2013-06-12 05:21:00,67.0,60.6,29.51,SW,220,0.0,0.0,80,0.00,,,0.00,0,WeatherCatV1.15B25,2013-06-12 09:21:00,
2013-06-12 05:26:00,66.9,60.5,29.52,SW,221,0.0,2.0,80,0.00,,,0.00,0,WeatherCatV1.15B25,2013-06-12 09:26:00,
2013-06-12 05:31:00,66.8,60.4,29.52,SW,221,0.0,1.0,80,0.00,,,0.00,0,WeatherCatV1.15B25,2013-06-12 09:31:00,
2013-06-12 05:36:00,66.7,60.3,29.52,SW,221,0.0,1.0,80,0.00,,,0.00,0,WeatherCatV1.15B25,2013-06-12 09:36:00,
2013-06-12 05:41:00,66.6,60.6,29.52,SW,221,0.0,0.0,81,0.00,,,0.00,0,WeatherCatV1.15B25,2013-06-12 09:41:00,
2013-06-12 05:46:00,66.5,60.5,29.53,SW,221,0.0,0.0,81,0.00,,,0.00,0,WeatherCatV1.15B25,2013-06-12 09:46:00,
2013-06-12 05:51:00,66.4,60.4,29.53,SW,221,0.0,0.0,81,0.00,,,0.00,5,WeatherCatV1.15B25,2013-06-12 09:51:00,
2013-06-12 05:56:00,66.3,60.3,29.53,SW,221,0.0,0.0,81,0.00,,,0.00,5,WeatherCatV1.15B25,2013-06-12 09:56:00,
2013-06-12 06:01:00,66.2,60.2,29.53,SW,221,0.0,0.0,81,0.00,,,0.00,7,WeatherCatV1.15B25,2013-06-12 10:01:00,
2013-06-12 06:06:00,66.1,60.4,29.53,SW,221,0.0,0.0,82,0.00,,,0.00,7,WeatherCatV1.15B25,2013-06-12 10:06:00,
2013-06-12 06:11:00,65.9,59.9,29.53,West,272,0.0,3.0,81,0.00,,,0.00,9,WeatherCatV1.15B25,2013-06-12 10:11:00,
2013-06-12 06:16:00,65.8,59.1,29.53,SE,144,0.0,1.0,79,0.00,,,0.00,9,WeatherCatV1.15B25,2013-06-12 10:16:00,
2013-06-12 06:21:00,65.7,57.9,29.54,West,269,0.0,4.0,76,0.00,,,0.00,11,WeatherCatV1.15B25,2013-06-12 10:21:00,
2013-06-12 06:26:00,65.7,57.2,29.54,NNE,29,1.0,4.0,74,0.00,,,0.00,12,WeatherCatV1.15B25,2013-06-12 10:26:00,
2013-06-12 06:31:00,65.8,57.3,29.53,West,267,0.0,2.0,74,0.00,,,0.00,11,WeatherCatV1.15B25,2013-06-12 10:31:00,
2013-06-12 06:36:00,65.8,56.9,29.54,West,265,0.0,3.0,73,0.00,,,0.00,18,WeatherCatV1.15B25,2013-06-12 10:36:00,
2013-06-12 06:41:00,65.8,56.9,29.54,West,265,0.0,1.0,73,0.00,,,0.00,16,WeatherCatV1.15B25,2013-06-12 10:41:00,
2013-06-12 06:46:00,65.7,56.4,29.54,SW,225,0.0,3.0,72,0.00,,,0.00,18,WeatherCatV1.15B25,2013-06-12 10:46:00,
2013-06-12 06:51:00,65.6,55.9,29.54,WNW,293,0.0,3.0,71,0.00,,,0.00,25,WeatherCatV1.15B25,2013-06-12 10:51:00,
2013-06-12 06:56:00,65.5,55.4,29.55,WNW,297,2.0,4.0,70,0.00,,,0.00,21,WeatherCatV1.15B25,2013-06-12 10:56:00,
2013-06-12 07:01:00,65.3,54.9,29.55,West,268,0.0,3.0,69,0.00,,,0.00,23,WeatherCatV1.15B25,2013-06-12 11:01:00,
2013-06-12 07:06:00,65.2,54.8,29.55,NW,317,0.0,1.0,69,0.00,,,0.00,21,WeatherCatV1.15B25,2013-06-12 11:06:00,
2013-06-12 07:11:00,65.1,54.7,29.55,WNW,287,0.0,3.0,69,0.00,,,0.00,37,WeatherCatV1.15B25,2013-06-12 11:11:00,
2013-06-12 07:16:00,64.9,54.5,29.55,NNW,339,0.0,1.0,69,0.00,,,0.00,32,WeatherCatV1.15B25,2013-06-12 11:16:00,
2013-06-12 07:21:00,64.7,54.3,29.56,NW,324,0.0,3.0,69,0.00,,,0.00,30,WeatherCatV1.15B25,2013-06-12 11:21:00,
2013-06-12 07:26:00,64.7,54.3,29.56,WNW,300,2.0,5.0,69,0.00,,,0.00,32,WeatherCatV1.15B25,2013-06-12 11:26:00,
2013-06-12 07:31:00,64.6,54.6,29.56,West,279,1.0,3.0,70,0.00,,,0.00,40,WeatherCatV1.15B25,2013-06-12 11:31:00,
2013-06-12 07:36:00,64.5,54.5,29.56,NW,309,0.0,1.0,70,0.00,,,0.00,42,WeatherCatV1.15B25,2013-06-12 11:36:00,
2013-06-12 07:41:00,64.5,54.9,29.56,WSW,248,0.0,3.0,71,0.00,,,0.00,28,WeatherCatV1.15B25,2013-06-12 11:41:00,
2013-06-12 07:46:00,64.6,55.4,29.56,WSW,250,0.0,0.0,72,0.00,,,0.00,25,WeatherCatV1.15B25,2013-06-12 11:46:00,
2013-06-12 07:51:00,64.6,55.4,29.56,WNW,283,1.0,4.0,72,0.00,,,0.00,21,WeatherCatV1.15B25,2013-06-12 11:51:00,
2013-06-12 07:56:00,64.6,55.4,29.57,NNE,15,0.0,2.0,72,0.00,,,0.00,23,WeatherCatV1.15B25,2013-06-12 11:56:00,
2013-06-12 08:01:00,64.6,55.7,29.57,SSW,196,0.0,3.0,73,0.00,,,0.00,18,WeatherCatV1.15B25,2013-06-12 12:01:00,
2013-06-12 08:06:00,64.6,55.7,29.56,NW,310,1.0,3.0,73,0.00,,,0.00,26,WeatherCatV1.15B25,2013-06-12 12:06:00,
2013-06-12 08:11:00,64.5,55.3,29.56,West,270,0.0,2.0,72,0.00,,,0.00,26,WeatherCatV1.15B25,2013-06-12 12:11:00,
2013-06-12 08:16:00,64.5,55.3,29.56,WSW,238,4.0,5.0,72,0.00,,,0.00,37,WeatherCatV1.15B25,2013-06-12 12:16:00,
2013-06-12 08:21:00,64.7,55.8,29.56,West,262,0.0,3.0,73,0.00,,,0.00,54,WeatherCatV1.15B25,2013-06-12 12:21:00,
2013-06-12 08:26:00,64.9,56.0,29.56,WNW,286,0.0,2.0,73,0.00,,,0.00,47,WeatherCatV1.15B25,2013-06-12 12:26:00,
2013-06-12 08:31:00,65.0,56.1,29.56,West,263,0.0,2.0,73,0.00,,,0.00,60,WeatherCatV1.15B25,2013-06-12 12:31:00,
2013-06-12 08:36:00,65.1,56.2,29.56,WSW,247,4.0,4.0,73,0.00,,,0.00,60,WeatherCatV1.15B25,2013-06-12 12:36:00,
2013-06-12 08:41:00,65.2,55.9,29.56,NNW,329,0.0,2.0,72,0.00,,,0.00,63,WeatherCatV1.15B25,2013-06-12 12:41:00,
2013-06-12 08:46:00,65.3,56.4,29.56,NW,311,0.0,2.0,73,0.00,,,0.00,72,WeatherCatV1.15B25,2013-06-12 12:46:00,
2013-06-12 08:51:00,65.6,56.7,29.56,NW,311,0.0,1.0,73,0.00,,,0.00,84,WeatherCatV1.15B25,2013-06-12 12:51:00,
2013-06-12 08:56:00,65.8,56.1,29.56,WSW,254,0.0,7.0,71,0.00,,,0.00,83,WeatherCatV1.15B25,2013-06-12 12:56:00,
2013-06-12 09:01:00,66.0,56.3,29.56,North,350,0.0,1.0,71,0.00,,,0.00,93,WeatherCatV1.15B25,2013-06-12 13:01:00,
2013-06-12 09:06:00,66.1,56.0,29.56,NNW,344,0.0,7.0,70,0.00,,,0.00,91,WeatherCatV1.15B25,2013-06-12 13:06:00,
2013-06-12 09:11:00,66.1,56.0,29.56,West,259,0.0,5.0,70,0.00,,,0.00,98,WeatherCatV1.15B25,2013-06-12 13:11:00,
2013-06-12 09:16:00,66.2,55.7,29.56,North,355,0.0,3.0,69,0.00,,,0.00,95,WeatherCatV1.15B25,2013-06-12 13:16:00,
2013-06-12 09:21:00,66.3,56.2,29.56,WSW,258,1.0,4.0,70,0.00,,,0.00,98,WeatherCatV1.15B25,2013-06-12 13:21:00,
2013-06-12 09:26:00,66.5,56.4,29.56,WSW,252,1.0,4.0,70,0.00,,,0.00,79,WeatherCatV1.15B25,2013-06-12 13:26:00,
2013-06-12 09:31:00,66.8,56.3,29.56,East,80,1.0,2.0,69,0.00,,,0.00,51,WeatherCatV1.15B25,2013-06-12 13:31:00,
2013-06-12 09:36:00,66.9,56.4,29.56,WSW,238,1.0,6.0,69,0.00,,,0.00,47,WeatherCatV1.15B25,2013-06-12 13:36:00,
2013-06-12 09:41:00,67.0,55.7,29.56,SSW,213,0.0,7.0,67,0.00,,,0.00,62,WeatherCatV1.15B25,2013-06-12 13:41:00,
2013-06-12 09:46:00,67.2,55.9,29.56,NNW,340,0.0,5.0,67,0.00,,,0.00,53,WeatherCatV1.15B25,2013-06-12 13:46:00,
2013-06-12 09:51:00,67.4,56.9,29.56,NE,46,0.0,4.0,69,0.00,,,0.00,26,WeatherCatV1.15B25,2013-06-12 13:51:00,
2013-06-12 09:56:00,67.7,56.3,29.56,NW,324,2.0,4.0,67,0.00,,,0.00,58,WeatherCatV1.15B25,2013-06-12 13:56:00,
2013-06-12 10:01:00,68.0,57.0,29.56,SSW,209,3.0,4.0,68,0.00,,,0.00,58,WeatherCatV1.15B25,2013-06-12 14:01:00,
2013-06-12 10:06:00,68.2,56.0,29.56,WSW,255,6.0,6.0,65,0.00,,,0.00,19,WeatherCatV1.15B25,2013-06-12 14:06:00,
2013-06-12 10:11:00,68.4,55.7,29.56,NW,309,3.0,5.0,64,0.00,,,0.00,65,WeatherCatV1.15B25,2013-06-12 14:11:00,
2013-06-12 10:16:00,68.8,57.0,29.56,NW,305,1.0,2.0,66,0.00,,,0.00,69,WeatherCatV1.15B25,2013-06-12 14:16:00,
2013-06-12 10:21:00,69.0,56.7,29.56,West,259,2.0,5.0,65,0.00,,,0.00,74,WeatherCatV1.15B25,2013-06-12 14:21:00,
2013-06-12 10:26:00,69.3,57.4,29.56,SE,144,0.0,2.0,66,0.00,,,0.00,74,WeatherCatV1.15B25,2013-06-12 14:26:00,
2013-06-12 10:31:00,69.5,56.8,29.56,NW,315,1.0,6.0,64,0.00,,,0.00,65,WeatherCatV1.15B25,2013-06-12 14:31:00,
2013-06-12 10:36:00,69.7,57.4,29.56,SW,234,3.0,3.0,65,0.00,,,0.00,130,WeatherCatV1.15B25,2013-06-12 14:36:00,
2013-06-12 10:41:00,70.0,57.7,29.56,WNW,291,2.0,3.0,65,0.00,,,0.00,79,WeatherCatV1.15B25,2013-06-12 14:41:00,
2013-06-12 10:46:00,70.3,57.1,29.56,NW,325,1.0,7.0,63,0.00,,,0.00,76,WeatherCatV1.15B25,2013-06-12 14:46:00,
2013-06-12 10:51:00,70.5,56.8,29.56,WNW,289,5.0,6.0,62,0.00,,,0.00,67,WeatherCatV1.15B25,2013-06-12 14:51:00,
2013-06-12 10:56:00,70.7,57.5,29.56,NE,44,1.0,4.0,63,0.00,,,0.00,98,WeatherCatV1.15B25,2013-06-12 14:56:00,
2013-06-12 11:01:00,70.8,56.7,29.56,North,0,3.0,4.0,61,0.00,,,0.00,97,WeatherCatV1.15B25,2013-06-12 15:01:00,
2013-06-12 11:06:00,70.9,57.2,29.56,SSW,203,0.0,1.0,62,0.00,,,0.00,77,WeatherCatV1.15B25,2013-06-12 15:06:00,
2013-06-12 11:11:00,71.3,57.1,29.56,NNW,342,0.0,3.0,61,0.00,,,0.00,74,WeatherCatV1.15B25,2013-06-12 15:11:00,
2013-06-12 11:16:00,71.5,57.3,29.56,WSW,253,0.0,7.0,61,0.00,,,0.00,90,WeatherCatV1.15B25,2013-06-12 15:16:00,
2013-06-12 11:21:00,71.8,56.7,29.56,WSW,244,0.0,5.0,59,0.00,,,0.00,84,WeatherCatV1.15B25,2013-06-12 15:21:00,
2013-06-12 11:26:00,72.1,57.0,29.56,WSW,253,0.0,3.0,59,0.00,,,0.00,76,WeatherCatV1.15B25,2013-06-12 15:26:00,
2013-06-12 11:31:00,72.4,56.8,29.56,NNW,341,0.0,3.0,58,0.00,,,0.00,77,WeatherCatV1.15B25,2013-06-12 15:31:00,
2013-06-12 11:36:00,72.5,56.4,29.56,SW,221,0.0,5.0,57,0.00,,,0.00,81,WeatherCatV1.15B25,2013-06-12 15:36:00,
2013-06-12 11:41:00,72.6,56.5,29.56,West,277,4.0,4.0,57,0.00,,,0.00,77,WeatherCatV1.15B25,2013-06-12 15:41:00,
2013-06-12 11:46:00,72.6,57.4,29.56,ENE,78,2.0,2.0,59,0.00,,,0.00,84,WeatherCatV1.15B25,2013-06-12 15:46:00,
2013-06-12 11:51:00,72.8,58.1,29.56,NW,325,0.0,2.0,60,0.00,,,0.00,81,WeatherCatV1.15B25,2013-06-12 15:51:00,
2013-06-12 11:56:00,73.1,56.9,29.56,West,262,1.0,2.0,57,0.00,,,0.00,84,WeatherCatV1.15B25,2013-06-12 15:56:00,
2013-06-12 12:01:00,73.2,57.0,29.56,WSW,249,5.0,6.0,57,0.00,,,0.00,90,WeatherCatV1.15B25,2013-06-12 16:01:00,
2013-06-12 12:06:00,73.4,57.2,29.56,West,260,7.0,7.0,57,0.00,,,0.00,125,WeatherCatV1.15B25,2013-06-12 16:06:00,
2013-06-12 12:11:00,73.7,58.5,29.56,WSW,249,0.0,1.0,59,0.00,,,0.00,186,WeatherCatV1.15B25,2013-06-12 16:11:00,
2013-06-12 12:16:00,74.0,58.3,29.56,West,266,1.0,2.0,58,0.00,,,0.00,93,WeatherCatV1.15B25,2013-06-12 16:16:00,
2013-06-12 12:21:00,74.4,58.6,29.56,SSW,211,0.0,3.0,58,0.00,,,0.00,97,WeatherCatV1.15B25,2013-06-12 16:21:00,
2013-06-12 12:26:00,74.6,58.3,29.57,NNW,342,1.0,2.0,57,0.00,,,0.00,95,WeatherCatV1.15B25,2013-06-12 16:26:00,
2013-06-12 12:31:00,74.7,56.9,29.56,NNE,19,2.0,4.0,54,0.00,,,0.00,93,WeatherCatV1.15B25,2013-06-12 16:31:00,
2013-06-12 12:36:00,74.9,56.6,29.57,West,261,1.0,4.0,53,0.00,,,0.00,109,WeatherCatV1.15B25,2013-06-12 16:36:00,
2013-06-12 12:40:00,75.0,56.7,29.56,West,277,2.0,3.0,53,0.00,,,0.00,118,WeatherCatV1.15B25,2013-06-12 16:40:00,
2013-06-12 12:45:00,75.2,56.3,29.56,WNW,287,4.0,6.0,52,0.00,,,0.00,107,WeatherCatV1.15B25,2013-06-12 16:45:00,
2013-06-12 12:50:00,75.2,55.8,29.56,WSW,247,2.0,4.0,51,0.00,,,0.00,105,WeatherCatV1.15B25,2013-06-12 16:50:00,
2013-06-12 12:55:00,75.3,55.9,29.56,West,265,2.0,3.0,51,0.00,,,0.00,125,WeatherCatV1.15B25,2013-06-12 16:55:00,
2013-06-12 13:00:00,75.3,55.9,29.57,NNW,338,2.0,7.0,51,0.00,,,0.00,160,WeatherCatV1.15B25,2013-06-12 17:00:00,
2013-06-12 13:05:00,75.5,57.2,29.56,NW,315,0.0,5.0,53,0.00,,,0.00,141,WeatherCatV1.15B25,2013-06-12 17:05:00,
2013-06-12 13:10:00,76.1,57.7,29.57,West,268,2.0,7.0,53,0.00,,,0.00,253,WeatherCatV1.15B25,2013-06-12 17:10:00,
2013-06-12 13:15:00,76.2,57.3,29.57,North,5,0.0,3.0,52,0.00,,,0.00,490,WeatherCatV1.15B25,2013-06-12 17:15:00,
2013-06-12 13:20:00,76.1,57.2,29.57,West,259,0.0,3.0,52,0.00,,,0.00,490,WeatherCatV1.15B25,2013-06-12 17:20:00,
2013-06-12 13:25:00,76.3,58.9,29.56,West,265,2.0,2.0,55,0.00,,,0.00,151,WeatherCatV1.15B25,2013-06-12 17:25:00,
2013-06-12 13:30:00,76.4,58.0,29.56,SW,218,0.0,5.0,53,0.00,,,0.00,735,WeatherCatV1.15B25,2013-06-12 17:30:00,
2013-06-12 13:35:00,77.1,58.1,29.56,WSW,243,2.0,3.0,52,0.00,,,0.00,735,WeatherCatV1.15B25,2013-06-12 17:35:00,
2013-06-12 13:40:00,76.5,57.5,29.56,WNW,302,3.0,4.0,52,0.00,,,0.00,735,WeatherCatV1.15B25,2013-06-12 17:40:00,
2013-06-12 13:45:00,76.5,57.0,29.56,South,171,0.0,2.0,51,0.00,,,0.00,1148,WeatherCatV1.15B25,2013-06-12 17:45:00,
2013-06-12 13:50:00,76.9,56.8,29.56,South,178,0.0,1.0,50,0.00,,,0.00,1025,WeatherCatV1.15B25,2013-06-12 17:50:00,
2013-06-12 13:55:00,77.7,56.4,29.56,South,182,0.0,8.0,48,0.00,,,0.00,1067,WeatherCatV1.15B25,2013-06-12 17:55:00,
2013-06-12 14:00:00,77.9,56.6,29.56,South,186,1.0,5.0,48,0.00,,,0.00,1123,WeatherCatV1.15B25,2013-06-12 18:00:00,
2013-06-12 14:05:00,77.4,55.6,29.56,SW,216,2.0,6.0,47,0.00,,,0.00,1035,WeatherCatV1.15B25,2013-06-12 18:05:00,
2013-06-12 14:10:00,77.7,55.2,29.56,West,273,4.0,11.0,46,0.00,,,0.00,1041,WeatherCatV1.15B25,2013-06-12 18:10:00,
2013-06-12 14:15:00,77.7,57.0,29.56,SE,144,0.0,1.0,49,0.00,,,0.00,1004,WeatherCatV1.15B25,2013-06-12 18:15:00,
2013-06-12 14:20:00,77.4,56.2,29.56,SSW,206,2.0,3.0,48,0.00,,,0.00,1023,WeatherCatV1.15B25,2013-06-12 18:20:00,
2013-06-12 14:25:00,77.4,55.6,29.56,WSW,255,1.0,6.0,47,0.00,,,0.00,1018,WeatherCatV1.15B25,2013-06-12 18:25:00,
2013-06-12 14:30:00,77.4,55.0,29.56,SSW,193,5.0,6.0,46,0.00,,,0.00,979,WeatherCatV1.15B25,2013-06-12 18:30:00,
2013-06-12 14:35:00,77.7,55.8,29.56,NNW,343,1.0,2.0,47,0.00,,,0.00,979,WeatherCatV1.15B25,2013-06-12 18:35:00,
2013-06-12 14:40:00,77.9,55.4,29.56,NE,51,3.0,5.0,46,0.00,,,0.00,993,WeatherCatV1.15B25,2013-06-12 18:40:00,
2013-06-12 14:45:00,78.7,57.3,29.56,SW,227,0.0,4.0,48,0.00,,,0.00,981,WeatherCatV1.15B25,2013-06-12 18:45:00,
2013-06-12 14:50:00,79.5,58.6,29.56,North,0,0.0,1.0,49,0.00,,,0.00,1049,WeatherCatV1.15B25,2013-06-12 18:50:00,
2013-06-12 14:55:00,79.1,57.1,29.55,NNW,348,1.0,2.0,47,0.00,,,0.00,949,WeatherCatV1.15B25,2013-06-12 18:55:00,
2013-06-12 15:00:00,79.0,57.0,29.55,West,275,2.0,3.0,47,0.00,,,0.00,942,WeatherCatV1.15B25,2013-06-12 19:00:00,
2013-06-12 15:05:00,78.8,56.2,29.55,NE,34,0.0,4.0,46,0.00,,,0.00,933,WeatherCatV1.15B25,2013-06-12 19:05:00,
2013-06-12 15:10:00,78.3,54.6,29.55,NNE,12,0.0,3.0,44,0.00,,,0.00,958,WeatherCatV1.15B25,2013-06-12 19:10:00,
2013-06-12 15:15:00,78.9,57.5,29.55,WNW,283,1.0,3.0,48,0.00,,,0.00,911,WeatherCatV1.15B25,2013-06-12 19:15:00,
2013-06-12 15:20:00,79.2,56.0,29.56,NE,42,3.0,3.0,45,0.00,,,0.00,904,WeatherCatV1.15B25,2013-06-12 19:20:00,
2013-06-12 15:25:00,78.5,55.4,29.55,North,0,4.0,5.0,45,0.00,,,0.00,893,WeatherCatV1.15B25,2013-06-12 19:25:00,
2013-06-12 15:30:00,78.4,57.1,29.55,NNE,19,1.0,1.0,48,0.00,,,0.00,879,WeatherCatV1.15B25,2013-06-12 19:30:00,
2013-06-12 15:35:00,78.7,56.8,29.55,NNW,331,0.0,2.0,47,0.00,,,0.00,867,WeatherCatV1.15B25,2013-06-12 19:35:00,
2013-06-12 15:40:00,78.7,56.8,29.55,North,0,2.0,3.0,47,0.00,,,0.00,684,WeatherCatV1.15B25,2013-06-12 19:40:00,
2013-06-12 15:45:00,78.7,59.0,29.55,WSW,250,0.0,4.0,51,0.00,,,0.00,870,WeatherCatV1.15B25,2013-06-12 19:45:00,
2013-06-12 15:50:00,78.1,56.8,29.55,ENE,62,1.0,3.0,48,0.00,,,0.00,833,WeatherCatV1.15B25,2013-06-12 19:50:00,
2013-06-12 15:55:00,78.0,56.7,29.54,ENE,73,2.0,4.0,48,0.00,,,0.00,814,WeatherCatV1.15B25,2013-06-12 19:55:00,
2013-06-12 16:00:00,78.0,57.8,29.55,NE,51,4.0,4.0,50,0.00,,,0.00,803,WeatherCatV1.15B25,2013-06-12 20:00:00,
2013-06-12 16:05:00,77.8,57.6,29.55,NNE,13,0.0,1.0,50,0.00,,,0.00,795,WeatherCatV1.15B25,2013-06-12 20:05:00,
2013-06-12 16:10:00,78.4,57.1,29.54,WSW,248,0.0,3.0,48,0.00,,,0.00,782,WeatherCatV1.15B25,2013-06-12 20:10:00,
2013-06-12 16:15:00,78.7,57.9,29.54,NW,319,2.0,3.0,49,0.00,,,0.00,773,WeatherCatV1.15B25,2013-06-12 20:15:00,
2013-06-12 16:20:00,78.0,57.8,29.54,ENE,71,0.0,2.0,50,0.00,,,0.00,729,WeatherCatV1.15B25,2013-06-12 20:20:00,
2013-06-12 16:25:00,78.4,57.1,29.54,NW,313,0.0,3.0,48,0.00,,,0.00,714,WeatherCatV1.15B25,2013-06-12 20:25:00,
2013-06-12 16:30:00,77.9,57.2,29.54,NW,324,1.0,3.0,49,0.00,,,0.00,738,WeatherCatV1.15B25,2013-06-12 20:30:00,
2013-06-12 16:35:00,77.9,56.6,29.55,North,11,0.0,3.0,48,0.00,,,0.00,744,WeatherCatV1.15B25,2013-06-12 20:35:00,
2013-06-12 16:40:00,78.0,57.3,29.55,NNE,28,2.0,3.0,49,0.00,,,0.00,721,WeatherCatV1.15B25,2013-06-12 20:40:00,
2013-06-12 16:45:00,77.8,57.1,29.55,North,5,3.0,3.0,49,0.00,,,0.00,643,WeatherCatV1.15B25,2013-06-12 20:45:00,
2013-06-12 16:50:00,77.5,56.8,29.55,NE,46,2.0,2.0,49,0.00,,,0.00,679,WeatherCatV1.15B25,2013-06-12 20:50:00,
2013-06-12 16:55:00,77.8,58.2,29.56,NW,315,1.0,4.0,51,0.00,,,0.00,545,WeatherCatV1.15B25,2013-06-12 20:55:00,
2013-06-12 17:00:00,78.4,58.2,29.56,NW,316,0.0,2.0,50,0.00,,,0.00,483,WeatherCatV1.15B25,2013-06-12 21:00:00,
2013-06-12 17:05:00,78.2,58.0,29.56,NNW,327,0.0,1.0,50,0.00,,,0.00,603,WeatherCatV1.15B25,2013-06-12 21:05:00,
2013-06-12 17:10:00,78.1,57.4,29.56,NW,321,0.0,3.0,49,0.00,,,0.00,577,WeatherCatV1.15B25,2013-06-12 21:10:00,
2013-06-12 17:15:00,78.2,59.1,29.56,NNE,22,0.0,2.0,52,0.00,,,0.00,564,WeatherCatV1.15B25,2013-06-12 21:15:00,
2013-06-12 17:20:00,77.4,57.8,29.56,ENE,67,0.0,1.0,51,0.00,,,0.00,497,WeatherCatV1.15B25,2013-06-12 21:20:00,
2013-06-12 17:25:00,77.5,58.5,29.57,SW,227,0.0,2.0,52,0.00,,,0.00,272,WeatherCatV1.15B25,2013-06-12 21:25:00,
2013-06-12 17:30:00,77.6,58.0,29.57,WNW,303,2.0,3.0,51,0.00,,,0.00,186,WeatherCatV1.15B25,2013-06-12 21:30:00,
2013-06-12 17:35:00,77.3,57.7,29.57,NNE,16,1.0,2.0,51,0.00,,,0.00,105,WeatherCatV1.15B25,2013-06-12 21:35:00,
2013-06-12 17:40:00,76.9,57.4,29.57,North,355,0.0,3.0,51,0.00,,,0.00,130,WeatherCatV1.15B25,2013-06-12 21:40:00,
2013-06-12 17:45:00,76.7,57.2,29.57,NW,321,4.0,4.0,51,0.00,,,0.00,95,WeatherCatV1.15B25,2013-06-12 21:45:00,
2013-06-12 17:50:00,76.7,57.7,29.57,NW,324,0.0,0.0,52,0.00,,,0.00,97,WeatherCatV1.15B25,2013-06-12 21:50:00,
2013-06-12 17:55:00,76.9,58.4,29.56,NNW,338,2.0,2.0,53,0.00,,,0.00,120,WeatherCatV1.15B25,2013-06-12 21:55:00,
2013-06-12 18:00:00,76.8,57.8,29.56,NW,321,1.0,2.0,52,0.00,,,0.00,142,WeatherCatV1.15B25,2013-06-12 22:00:00,
2013-06-12 18:05:00,76.8,57.8,29.57,NNW,332,0.0,3.0,52,0.00,,,0.00,95,WeatherCatV1.15B25,2013-06-12 22:05:00,
2013-06-12 18:10:00,76.7,57.7,29.57,North,351,2.0,3.0,52,0.00,,,0.00,227,WeatherCatV1.15B25,2013-06-12 22:10:00,
2013-06-12 18:15:00,76.5,57.5,29.57,NNW,344,0.0,1.0,52,0.00,,,0.00,199,WeatherCatV1.15B25,2013-06-12 22:15:00,
2013-06-12 18:20:00,76.5,57.0,29.57,NE,36,0.0,2.0,51,0.00,,,0.00,158,WeatherCatV1.15B25,2013-06-12 22:20:00,
2013-06-12 18:25:00,76.3,58.4,29.56,NE,36,0.0,1.0,54,0.00,,,0.00,74,WeatherCatV1.15B25,2013-06-12 22:25:00,
2013-06-12 18:30:00,76.3,57.9,29.56,NE,36,0.0,0.0,53,0.00,,,0.00,86,WeatherCatV1.15B25,2013-06-12 22:30:00,
2013-06-12 18:35:00,75.9,58.0,29.56,ENE,69,0.0,1.0,54,0.00,,,0.00,76,WeatherCatV1.15B25,2013-06-12 22:35:00,
2013-06-12 18:40:00,76.1,57.2,29.56,ENE,69,0.0,0.0,52,0.00,,,0.00,141,WeatherCatV1.15B25,2013-06-12 22:40:00,
2013-06-12 18:45:00,75.9,57.0,29.56,ENE,69,0.0,1.0,52,0.00,,,0.00,211,WeatherCatV1.15B25,2013-06-12 22:45:00,
2013-06-12 18:50:00,75.7,57.3,29.56,WNW,296,0.0,0.0,53,0.00,,,0.00,132,WeatherCatV1.15B25,2013-06-12 22:50:00,
2013-06-12 18:55:00,75.8,57.4,29.56,WNW,296,0.0,1.0,53,0.00,,,0.00,137,WeatherCatV1.15B25,2013-06-12 22:55:00,
2013-06-12 19:00:00,75.5,56.6,29.56,NNW,346,0.0,0.0,52,0.00,,,0.00,86,WeatherCatV1.15B25,2013-06-12 23:00:00,
2013-06-12 19:05:00,75.6,58.3,29.57,NNW,346,0.0,0.0,55,0.00,,,0.00,151,WeatherCatV1.15B25,2013-06-12 23:05:00,
2013-06-12 19:10:00,75.2,57.4,29.57,NNW,346,0.0,0.0,54,0.00,,,0.00,67,WeatherCatV1.15B25,2013-06-12 23:10:00,
2013-06-12 19:15:00,75.1,57.3,29.57,NNW,346,0.0,0.0,54,0.00,,,0.00,40,WeatherCatV1.15B25,2013-06-12 23:15:00,
2013-06-12 19:20:00,74.9,57.6,29.58,NNW,346,0.0,0.0,55,0.00,,,0.00,39,WeatherCatV1.15B25,2013-06-12 23:20:00,
2013-06-12 19:25:00,74.8,57.5,29.58,NNW,346,0.0,0.0,55,0.00,,,0.00,26,WeatherCatV1.15B25,2013-06-12 23:25:00,
2013-06-12 19:30:00,74.6,57.3,29.58,NNW,346,0.0,0.0,55,0.00,,,0.00,21,WeatherCatV1.15B25,2013-06-12 23:30:00,
2013-06-12 19:35:00,74.3,57.6,29.58,NNW,346,0.0,0.0,56,0.00,,,0.00,18,WeatherCatV1.15B25,2013-06-12 23:35:00,
2013-06-12 19:40:00,74.1,57.4,29.58,NNW,346,0.0,0.0,56,0.00,,,0.00,14,WeatherCatV1.15B25,2013-06-12 23:40:00,
2013-06-12 19:45:00,73.9,57.7,29.59,NNW,346,0.0,0.0,57,0.00,,,0.00,12,WeatherCatV1.15B25,2013-06-12 23:45:00,
2013-06-12 19:50:00,73.2,59.4,29.59,NNW,346,0.0,0.0,62,0.00,,,0.00,11,WeatherCatV1.15B25,2013-06-12 23:50:00,
2013-06-12 19:55:00,72.3,59.9,29.59,NNW,346,0.0,0.0,65,0.00,,,0.00,9,WeatherCatV1.15B25,2013-06-12 23:55:00,
2013-06-12 20:00:00,71.7,59.7,29.59,NNW,346,0.0,0.0,66,0.00,,,0.00,7,WeatherCatV1.15B25,2013-06-13 00:00:00,
2013-06-12 20:05:00,71.3,59.3,29.59,NNW,346,0.0,0.0,66,0.00,,,0.00,5,WeatherCatV1.15B25,2013-06-13 00:05:00,
2013-06-12 20:10:00,70.9,59.4,29.60,NNW,346,0.0,0.0,67,0.00,,,0.00,5,WeatherCatV1.15B25,2013-06-13 00:10:00,
2013-06-12 20:15:00,70.4,58.9,29.60,NNW,346,0.0,0.0,67,0.00,,,0.00,0,WeatherCatV1.15B25,2013-06-13 00:15:00,
2013-06-12 20:20:00,69.9,59.3,29.60,NNW,346,0.0,0.0,69,0.00,,,0.00,0,WeatherCatV1.15B25,2013-06-13 00:20:00,
2013-06-12 20:25:00,69.4,59.2,29.60,NNW,346,0.0,0.0,70,0.00,,,0.00,0,WeatherCatV1.15B25,2013-06-13 00:25:00,
2013-06-12 20:30:00,68.9,59.1,29.60,NNW,346,0.0,0.0,71,0.00,,,0.00,0,WeatherCatV1.15B25,2013-06-13 00:30:00,
2013-06-12 20:35:00,68.5,59.1,29.60,NNW,346,0.0,0.0,72,0.00,,,0.00,0,WeatherCatV1.15B25,2013-06-13 00:35:00,
2013-06-12 20:40:00,67.9,58.9,29.60,NNW,346,0.0,0.0,73,0.00,,,0.00,0,WeatherCatV1.15B25,2013-06-13 00:40:00,
2013-06-12 20:45:00,67.6,59.0,29.60,NNW,346,0.0,0.0,74,0.00,,,0.00,0,WeatherCatV1.15B25,2013-06-13 00:45:00,
2013-06-12 20:50:00,67.3,59.1,29.60,NNW,346,0.0,0.0,75,0.00,,,0.00,0,WeatherCatV1.15B25,2013-06-13 00:50:00,
2013-06-12 20:55:00,66.8,59.3,29.60,NNW,346,0.0,0.0,77,0.00,,,0.00,0,WeatherCatV1.15B25,2013-06-13 00:55:00,
2013-06-12 21:00:00,66.2,59.1,29.60,NNW,346,0.0,0.0,78,0.00,,,0.00,0,WeatherCatV1.15B25,2013-06-13 01:00:00,
2013-06-12 21:05:00,65.9,59.2,29.60,NNW,346,0.0,0.0,79,0.00,,,0.00,0,WeatherCatV1.15B25,2013-06-13 01:05:00,
2013-06-12 21:10:00,65.6,59.6,29.60,NNW,346,0.0,0.0,81,0.00,,,0.00,0,WeatherCatV1.15B25,2013-06-13 01:10:00,
2013-06-12 21:15:00,65.2,59.6,29.59,NNW,346,0.0,0.0,82,0.00,,,0.00,0,WeatherCatV1.15B25,2013-06-13 01:15:00,
2013-06-12 21:20:00,64.9,59.6,29.59,NNW,346,0.0,0.0,83,0.00,,,0.00,0,WeatherCatV1.15B25,2013-06-13 01:20:00,
2013-06-12 21:25:00,64.5,59.6,29.59,NNW,346,0.0,0.0,84,0.00,,,0.00,0,WeatherCatV1.15B25,2013-06-13 01:25:00,
2013-06-12 21:30:00,64.2,59.3,29.60,NNW,346,0.0,0.0,84,0.00,,,0.00,0,WeatherCatV1.15B25,2013-06-13 01:30:00,
2013-06-12 21:31:00,64.2,59.3,29.60,NNW,346,0.0,0.0,84,0.00,,,0.00,0,WeatherCatV1.15B25,2013-06-13 01:31:00,
2013-06-12 21:36:00,63.8,59.2,29.60,NNW,346,0.0,0.0,85,0.00,,,0.00,0,WeatherCatV1.15B25,2013-06-13 01:36:00,
2013-06-12 21:41:00,63.6,59.3,29.60,NNW,346,0.0,0.0,86,0.00,,,0.00,0,WeatherCatV1.15B25,2013-06-13 01:41:00,
2013-06-12 21:46:00,63.3,59.0,29.60,NNW,346,0.0,0.0,86,0.00,,,0.00,0,WeatherCatV1.15B25,2013-06-13 01:46:00,
2013-06-12 21:51:00,63.1,59.2,29.60,NNW,346,0.0,0.0,87,0.00,,,0.00,0,WeatherCatV1.15B25,2013-06-13 01:51:00,
2013-06-12 21:56:00,62.9,59.3,29.60,NNW,346,0.0,0.0,88,0.00,,,0.00,0,WeatherCatV1.15B25,2013-06-13 01:56:00,
2013-06-12 22:01:00,62.7,59.4,29.60,NNW,346,0.0,0.0,89,0.00,,,0.00,0,WeatherCatV1.15B25,2013-06-13 02:01:00,
2013-06-12 22:06:00,62.5,59.5,29.60,NNW,346,0.0,0.0,90,0.00,,,0.00,0,WeatherCatV1.15B25,2013-06-13 02:06:00,
2013-06-12 22:11:00,62.2,59.2,29.60,NNW,346,0.0,0.0,90,0.00,,,0.00,0,WeatherCatV1.15B25,2013-06-13 02:11:00,
2013-06-12 22:16:00,62.0,59.3,29.61,NNW,346,0.0,0.0,91,0.00,,,0.00,0,WeatherCatV1.15B25,2013-06-13 02:16:00,
2013-06-12 22:21:00,61.9,59.5,29.60,NNW,346,0.0,0.0,92,0.00,,,0.00,0,WeatherCatV1.15B25,2013-06-13 02:21:00,
2013-06-12 22:26:00,61.7,59.3,29.60,NNW,346,0.0,0.0,92,0.00,,,0.00,0,WeatherCatV1.15B25,2013-06-13 02:26:00,
2013-06-12 22:31:00,61.3,59.0,29.60,NNW,346,0.0,0.0,92,0.00,,,0.00,0,WeatherCatV1.15B25,2013-06-13 02:31:00,
2013-06-12 22:36:00,61.3,59.0,29.59,NNW,346,0.0,0.0,92,0.00,,,0.00,0,WeatherCatV1.15B25,2013-06-13 02:36:00,
2013-06-12 22:41:00,61.0,59.0,29.59,NNW,346,0.0,0.0,93,0.00,,,0.00,0,WeatherCatV1.15B25,2013-06-13 02:41:00,
2013-06-12 22:46:00,61.0,59.0,29.59,NNW,346,0.0,0.0,93,0.00,,,0.00,0,WeatherCatV1.15B25,2013-06-13 02:46:00,
2013-06-12 22:51:00,60.7,58.7,29.60,NNW,346,0.0,0.0,93,0.00,,,0.00,0,WeatherCatV1.15B25,2013-06-13 02:51:00,
2013-06-12 22:56:00,60.6,58.6,29.60,NNW,346,0.0,0.0,93,0.00,,,0.00,0,WeatherCatV1.15B25,2013-06-13 02:56:00,
2013-06-12 23:01:00,60.6,58.9,29.60,NNW,346,0.0,0.0,94,0.00,,,0.00,0,WeatherCatV1.15B25,2013-06-13 03:01:00,
2013-06-12 23:06:00,60.6,58.9,29.60,NNW,346,0.0,0.0,94,0.00,,,0.00,0,WeatherCatV1.15B25,2013-06-13 03:06:00,
2013-06-12 23:11:00,60.5,58.5,29.60,NNW,346,0.0,0.0,93,0.00,,,0.00,0,WeatherCatV1.15B25,2013-06-13 03:11:00,
2013-06-12 23:16:00,60.4,58.4,29.59,NNW,346,0.0,0.0,93,0.00,,,0.00,0,WeatherCatV1.15B25,2013-06-13 03:16:00,
2013-06-12 23:21:00,60.4,58.7,29.59,NNW,346,0.0,0.0,94,0.00,,,0.00,0,WeatherCatV1.15B25,2013-06-13 03:21:00,
2013-06-12 23:26:00,60.4,58.7,29.59,NNW,346,0.0,0.0,94,0.00,,,0.00,0,WeatherCatV1.15B25,2013-06-13 03:26:00,
2013-06-12 23:31:00,60.4,58.7,29.59,NNW,346,0.0,0.0,94,0.00,,,0.00,0,WeatherCatV1.15B25,2013-06-13 03:31:00,
2013-06-12 23:36:00,60.3,58.6,29.59,NNW,346,0.0,0.0,94,0.00,,,0.00,0,WeatherCatV1.15B25,2013-06-13 03:36:00,
2013-06-12 23:41:00,60.2,58.5,29.59,NNW,346,0.0,0.0,94,0.00,,,0.00,0,WeatherCatV1.15B25,2013-06-13 03:41:00,
2013-06-12 23:46:00,60.2,58.5,29.59,NNW,346,0.0,0.0,94,0.00,,,0.00,0,WeatherCatV1.15B25,2013-06-13 03:46:00,
2013-06-12 23:51:00,60.1,58.4,29.59,NNW,346,0.0,0.0,94,0.00,,,0.00,0,WeatherCatV1.15B25,2013-06-13 03:51:00,
2013-06-12 23:56:00,59.9,58.2,29.59,NNW,346,0.0,0.0,94,0.00,,,0.00,0,WeatherCatV1.15B25,2013-06-13 03:56:00,